Simultaneous Nadir Overpasses (SNOs) Predictions

Prediction of SNOs between LANDSAT-8 and METOP-A Satellite Orbit:

Table of predicted SNOs for the next 14.0 days since TLE Epoch: 12/12/2020
Index Date (LANDSAT-8) Time (LANDSAT-8) Lat,Lon (LANDSAT-8) SZA (LANDSAT-8 ) Date (METOP-A) Time (METOP-A) Lat,Lon (METOP-A) SZA (METOP-A ) Distance(km) Time Diff (sec)
1 12/13/2020 08:51:51 81.44, 92.58 107.18 12/13/2020 08:51:14 81.44, 92.38 107.15 3.24 37
2 12/13/2020 09:41:18 -81.44, -99.87 72.84 12/13/2020 09:41:54 -81.44,-100.06 72.84 3.13 36
3 12/16/2020 04:26:06 81.44, 158.98 107.28 12/16/2020 04:25:35 81.43, 159.13 107.28 2.55 31
4 12/16/2020 05:15:33 -81.43, -33.44 72.73 12/16/2020 05:16:15 -81.43, -33.28 72.70 2.80 42
5 12/19/2020 00:00:21 81.43,-134.66 107.32 12/18/2020 23:59:57 81.43,-134.54 107.32 2.00 24
6 12/19/2020 00:49:48 -81.43, 32.95 72.69 12/19/2020 00:50:37 -81.43, 33.09 72.66 2.35 49
7 12/21/2020 19:34:35 81.43, -68.35 107.29 12/21/2020 19:34:18 81.44, -68.24 107.30 1.97 17
8 12/21/2020 20:24:02 -81.43, 99.29 72.72 12/21/2020 20:24:58 -81.43, 99.42 72.68 2.19 56
9 12/24/2020 15:08:49 81.44, -1.69 107.24 12/24/2020 15:08:39 81.43, -1.58 107.24 2.22 10



Historial Predications of SNOs between LANDSAT-8 and METOP-A
